User: anonymous   Login
Location: Fernhill
(41.0167°S, 175.6333°E)
Time: 19:46:04
(UTC+00:00)
Language:

Cosmos 1782 - Orbit

View from above orbital plane
View from above orbital plane
View from above satellite
View from above satellite

Ground track
Ground track

The orbit is defined by the following mean orbital elements,

1 16986U          26018.21737462 +.00000000 +00000-0 +36773-3 0 00001
2 16986  82.5281 289.3919 0007803  39.3704 320.8103 15.32037902    02
Epoch (UTC): 18 January 2026 05:13:01
Eccentricity: 0.0007803
inclination: 82.5281°
perigee height: 464 km
apogee height: 475 km
right ascension of ascending node: 289.3919°
argument of perigee: 39.3704°
revolutions per day: 15.32037902
mean anomaly at epoch: 320.8103°

The dashed part of the orbit path shows where the satellite is in the earth's shadow,  

DLR